Regional Weather Roundup
Issued by NWS

Home | Current Version | Previous Version | Text Only | Print | Product List | Glossary Off
Versions: 1 2 3 4 5 6 7 8 9 10 11 12 13 14 15 16 17 18 19 20 21 22 23 24 25 26 27 28 29 30 31 32 33 34 35 36 37 38 39 40 41 42 43 44 45 46 47 48 49 50

000
ASUS43 KLOT 281410
RWRIL

ILLINOIS REGIONAL WEATHER ROUNDUP
NATIONAL WEATHER SERVICE CHICAGO/ROMEOVILLE IL
900 AM CDT MON JUL 28 2014

NOTE: "FAIR" INDICATES FEW OR NO CLOUDS BELOW 12,000 FEET WITH NO
SIGNIFICANT WEATHER AND/OR OBSTRUCTIONS TO VISIBILITY.

* THESE STATIONS ARE NOT UNDER NWS QUALITY CONTROL. THEY ALSO MAY NOT
  REPORT WEATHER SUCH AS PRECIPITATION OR FOG.

ILZ001-002-007-009-015-016-024-281500-
NORTHWEST ILLINOIS

CITY           SKY/WX    TMP DP  RH WIND       PRES   REMARKS
MOLINE         SUNNY     65  51  60 N12G17    30.13R
STERLING*      SUNNY     64  52  63 N14G20    30.12R
SAVANNA*       SUNNY     65  49  56 N15       30.13R
$$

ILZ003-004-008-010-011-017-018-281500-
NORTH CENTRAL ILLINOIS

CITY           SKY/WX    TMP DP  RH WIND       PRES   REMARKS
ROCKFORD       MOSUNNY   62  48  60 N21G26    30.12R
FREEPORT*      SUNNY     58  51  75 N8        30.14S
ROCHELLE*      SUNNY     62  49  62 N15       30.10R
DE KALB*       SUNNY     59  49  68 N16G22    30.09R
PERU*          SUNNY     63  52  67 N15G21    30.10R
$$

ILZ005-006-012>014-019>023-281500-
NORTHEAST ILLINOIS

CITY           SKY/WX    TMP DP  RH WIND       PRES   REMARKS
CHICAGO-OHARE  MOSUNNY   63  47  55 N16       30.05R
CHICAGO-MIDWAY MOSUNNY   64  50  60 N15       30.05R
AURORA         SUNNY     62  49  62 N16G24    30.07R
LANSING*       PTSUNNY   63  51  66 N15G25    30.04R
JOLIET*        SUNNY     63  50  63 N8        30.07R
WAUKEGAN       SUNNY     59  45  59 N14G20    30.06R
DUPAGE AIRPORT SUNNY     63  49  60 N15       30.06R
KANKAKEE*      SUNNY     64  54  71 NW9       30.05R
WHEELING       SUNNY     63  48  58 N14       30.07R
MORRIS*        SUNNY     63  53  70 N3        30.06R
ROMEOVILLE*    SUNNY     63  50  63 N9G16     30.06R
NORTHERLY ISL    N/A     61  50  67 MISG        N/A
$$

LMZ740>746-281500-
SOUTHERN LAKE MICHIGAN

STATION/POSITION SKY/WX   TEMP    WIND        PRES    VSBY  WAVE
                          AIR SEA DIR/SP/G                  HT/PER
                          (F)     (DEG/KT/KT) (MB)    (MI)  (FT/S)
SOUTHERN BUOY              56 59  340/ 21/ 27 1016.4R         8/ 7
WAUKEGAN HARBOR            59     350/ 14/ 19   N/A
HARRISON CRIB              59     340/ 23/ 27   N/A
BURNHAM HARBOR             61     350/ 16/ 17   N/A
CALUMET HARBOR             61     330/  8/ 14 1016.1S
MICHIGAN CITY              60     340/ 24/ 29   N/A
MICHIGAN CITY 6N           61 67  360/ 19/ 25   N/A           9/ 7
ST. JOSEPH                 60 65  350/ 17/ 23   N/A           9/ 7
$$

ILZ025>027-034>036-040-047-049-050-058-095>099-281500-
WEST-CENTRAL ILLINOIS

CITY           SKY/WX    TMP DP  RH WIND       PRES   REMARKS
QUINCY         CLOUDY    65  60  84 N10       30.13R
GALESBURG*     SUNNY     65  55  71 N14       30.13R
MACOMB*        CLOUDY    65  59  79 N12G17    30.14R
JACKSONVILLE*  MOSUNNY   68  62  79 NW6       30.11R
PITTSFIELD*    MOSUNNY   69  61  76 N6        30.13R
$$

ILZ028>032-037-038-041>044-048-051>054-059>061-281500-
CENTRAL ILLINOIS

CITY           SKY/WX    TMP DP  RH WIND       PRES   REMARKS
PONTIAC        SUNNY     64  55  72 N13       30.07R
DECATUR        SUNNY     66  55  67 N15       30.07R
PEORIA         SUNNY     66  52  60 N8G18     30.10R
LACON*         SUNNY     63  52  67 N13       30.08S
LINCOLN*       SUNNY     67  56  67 N10G16    30.06R
SPRINGFIELD    SUNNY     69  58  67 N13       30.09R
TAYLORVILLE    MOSUNNY   64  59  82 N8        30.08R
$$

ILZ033-039-045-046-055>057-062-063-281500-
EAST-CENTRAL ILLINOIS

CITY           SKY/WX    TMP DP  RH WIND       PRES   REMARKS
CHAMPAIGN      SUNNY     63  57  81 N14       30.04R
DANVILLE*      SUNNY     63  55  76 N13       30.00R
RANTOUL*       SUNNY     66  54  64 N14G20    30.05S
MATTOON        MOSUNNY   65  58  78 N13       30.04R
PARIS*         SUNNY     66  59  76 N9        30.04R
$$

ILZ079-100>102-281500-
SOUTHWEST ILLINOIS

CITY           SKY/WX    TMP DP  RH WIND       PRES   REMARKS
ALTON          PTSUNNY   68  64  88 N7        30.09R
BELLEVILLE     MOSUNNY   71  63  75 N12       30.07R
CAHOKIA*       MOSUNNY   72  62  71 N12       30.08R
SPARTA*        MOSUNNY   68  61  77 N7        30.09R
$$

ILZ064>066-069>071-074>076-080>082-084>086-088>090-092>094-281500-
SOUTH-CENTRAL ILLINOIS

CITY           SKY/WX    TMP DP  RH WIND       PRES   REMARKS
CARBONDALE     SUNNY     70  61  73 NW9       30.06S
CAIRO*         SUNNY     74  63  67 NW8       30.06S
EFFINGHAM*     CLOUDY    68  58  72 NW9       30.06R
MARION         SUNNY     70  63  78 NW12      30.06S
MT. VERNON     SUNNY     70  61  73 N6        30.06R
CENTRALIA*     SUNNY     71  61  68 N5        30.06R
SALEM*         SUNNY    N/A N/A N/A N10       30.06R
METROPOLIS*    SUNNY     72  58  61 N7        30.05R
$$

ILZ067-068-072-073-078-083-087-091-281500-
SOUTHEAST ILLINOIS

CITY           SKY/WX    TMP DP  RH WIND       PRES   REMARKS
LAWRENCEVILLE  SUNNY     70  59  68 N13       30.03R
FLORA*         SUNNY     69  60  73 N9        30.05R
FAIRFIELD*     SUNNY     70  63  78 N9        30.04R
HARRISBURG*    SUNNY     70  63  78 NW8       30.06R
ROBINSON*      SUNNY     69  59  69 N10G18    30.03R
$$

ABBREVIATIONS USED IN REMARKS
   TC - TEMPERATURE IN CELSIUS
  WCI - WIND CHILL INDEX
   HX - HEAT INDEX
  VSB - VISIBILITY
$$




USA.gov is the U.S. government's official web portal to all federal, state and local government web resources and services.